CDT,Max TemperatureF,Mean TemperatureF,Min TemperatureF,Max Dew PointF,MeanDew PointF,Min DewpointF,Max Humidity, Mean Humidity, Min Humidity, Max Sea Level PressureIn, Mean Sea Level PressureIn, Min Sea Level PressureIn, Max VisibilityMiles, Mean VisibilityMiles, Min VisibilityMiles, Max Wind SpeedMPH, Mean Wind SpeedMPH, Max Gust SpeedMPH,PrecipitationIn, CloudCover, Events, WindDirDegrees
2012-9-1,78,60,42,52,43,37,82,61,30,30.22,30.18,30.11,10,10,7,8,1,16,0.00,0,,69
2012-9-2,84,76,69,57,53,48,53,39,30,30.03,29.93,29.88,10,10,10,13,8,21,0.00,0,,171
2012-9-3,75,65,55,64,60,48,77,72,64,29.90,29.88,29.85,10,10,10,14,10,22,0.00,3,,220
2012-9-4,87,66,46,61,56,43,87,59,33,29.89,29.77,29.69,10,10,0,14,5,23,0.00,1,Thunderstorm,185
2012-9-5,71,64,57,57,55,50,88,74,46,29.85,29.78,29.74,10,10,1,17,3,17,0.14,2,,229
2012-9-6,73,60,48,50,47,43,82,55,38,29.90,29.87,29.85,10,10,10,18,7,24,0.00,0,,270
2012-9-7,62,58,53,52,47,43,82,66,55,29.91,29.89,29.88,10,10,10,15,10,21,0.13,6,,304
2012-9-8,57,52,48,52,47,45,87,78,72,29.93,29.85,29.75,10,10,10,13,7,22,0.02,6,,293
2012-9-9,62,56,48,48,46,41,82,68,45,30.13,30.05,29.94,10,10,10,13,5,17,0.00,4,,324
2012-9-10,77,64,51,48,45,41,71,55,34,30.08,29.99,29.84,10,10,10,18,11,31,0.00,0,,191
2012-9-11,80,71,62,55,52,48,59,43,37,29.83,29.76,29.71,10,10,10,22,14,36,0.00,0,,193
2012-9-12,77,64,51,54,45,41,77,60,41,30.16,30.03,29.77,10,10,10,18,11,29,0.03,3,,226
2012-9-13,64,53,42,43,37,32,81,53,32,30.26,30.23,30.15,10,10,10,20,9,28,0.00,0,,273
2012-9-14,59,48,37,45,39,34,87,64,44,30.33,30.31,30.28,10,10,9,13,5,16,0.00,1,,323
2012-9-15,73,53,33,46,38,30,93,70,38,30.30,30.22,30.00,10,10,9,12,4,,0.00,0,,125
2012-9-16,73,68,60,54,52,48,77,57,47,29.87,29.84,29.82,10,10,10,16,8,22,0.00,0,,285
2012-9-17,57,49,41,50,44,37,88,80,66,29.93,29.89,29.84,10,9,1,12,5,,0.41,8,,349
2012-9-18,48,40,32,37,32,28,93,75,46,29.95,29.91,29.89,10,10,1,18,5,30,0.07,3,,280
2012-9-19,62,50,37,46,37,28,87,68,48,29.89,29.68,29.55,10,10,8,21,12,39,0.40,4,Thunderstorm,204
2012-9-20,53,47,41,45,41,34,87,75,54,29.80,29.73,29.64,10,10,9,18,13,26,0.16,6,,261
2012-9-21,53,48,42,41,37,30,87,69,41,29.77,29.75,29.72,10,10,9,17,9,20,0.03,5,,262
2012-9-22,48,44,39,39,33,27,93,64,49,30.11,30.03,29.79,10,10,10,18,9,26,0.14,7,,323
2012-9-23,50,44,37,34,31,27,81,62,40,30.19,30.14,30.05,10,10,10,15,8,21,0.00,5,,285
2012-9-24,71,54,37,39,31,27,70,45,27,30.04,29.79,29.58,10,10,10,29,13,39,0.00,2,,234
2012-9-25,51,40,28,43,33,25,93,69,44,29.95,29.90,29.84,10,10,3,14,2,,0.00,4,,335
2012-9-26,51,40,28,41,31,25,93,73,41,30.22,30.09,29.95,10,10,3,12,2,,0.07,3,,320
2012-9-27,60,43,26,37,30,21,93,71,34,30.28,30.22,30.16,10,10,5,9,1,,0.00,0,,278
2012-9-28,68,49,30,39,33,27,93,65,28,30.18,30.12,30.07,10,10,8,12,2,,0.00,0,,261
2012-9-29,66,50,33,45,37,30,93,70,35,30.10,30.08,30.06,10,10,8,13,2,16,0.00,0,,1
2012-9-30,66,48,30,45,34,25,93,64,32,30.05,30.00,29.91,10,9,2,7,2,,0.00,0,,60